Time,TemperatureF,DewpointF,PressureIn,WindDirection,WindDirectionDegrees,WindSpeedMPH,WindSpeedGustMPH,Humidity,HourlyPrecipIn,Conditions,Clouds,dailyrainin,SolarRadiationWatts/m^2,SoftwareType,DateUTC
2013-07-21 00:01:00,67.0,65.2,29.80,WSW,255,0.0,1.0,94,0.00,,,0.00,0.0,WUHU216DAVISVP2,2013-07-21 04:01:00,
2013-07-21 00:06:00,66.7,65.2,29.80,WSW,255,0.0,1.0,95,0.00,,,0.00,0.0,WUHU216DAVISVP2,2013-07-21 04:06:00,
2013-07-21 00:11:00,66.6,65.1,29.81,WSW,255,0.0,1.0,95,0.00,,,0.00,0.0,WUHU216DAVISVP2,2013-07-21 04:11:00,
2013-07-21 00:16:00,66.5,65.0,29.81,WSW,255,0.0,1.0,95,0.00,,,0.00,0.0,WUHU216DAVISVP2,2013-07-21 04:16:00,
2013-07-21 00:21:00,66.4,64.9,29.81,WSW,255,0.0,1.0,95,0.00,,,0.00,0.0,WUHU216DAVISVP2,2013-07-21 04:21:00,
2013-07-21 00:26:00,66.3,64.8,29.81,WSW,255,0.0,0.0,95,0.00,,,0.00,0.0,WUHU216DAVISVP2,2013-07-21 04:26:00,
2013-07-21 00:31:00,66.2,64.7,29.81,WSW,255,0.0,0.0,95,0.00,,,0.00,0.0,WUHU216DAVISVP2,2013-07-21 04:31:00,
2013-07-21 00:36:00,66.1,64.6,29.81,WSW,255,0.0,0.0,95,0.00,,,0.00,0.0,WUHU216DAVISVP2,2013-07-21 04:36:00,
2013-07-21 00:41:00,66.1,64.6,29.82,WSW,255,0.0,1.0,95,0.00,,,0.00,0.0,WUHU216DAVISVP2,2013-07-21 04:41:00,
2013-07-21 00:46:00,66.1,64.6,29.82,WSW,255,0.0,1.0,95,0.00,,,0.00,0.0,WUHU216DAVISVP2,2013-07-21 04:46:00,
2013-07-21 00:51:00,66.0,64.5,29.82,WSW,255,1.0,2.0,95,0.00,,,0.00,0.0,WUHU216DAVISVP2,2013-07-21 04:51:00,
2013-07-21 00:56:00,66.2,64.7,29.82,WSW,255,0.0,2.0,95,0.00,,,0.00,0.0,WUHU216DAVISVP2,2013-07-21 04:56:00,
2013-07-21 01:01:00,66.6,65.1,29.82,WSW,255,1.0,2.0,95,0.00,,,0.00,0.0,WUHU216DAVISVP2,2013-07-21 05:01:00,
2013-07-21 01:06:00,66.3,64.5,29.82,WSW,255,0.0,2.0,94,0.00,,,0.00,0.0,WUHU216DAVISVP2,2013-07-21 05:06:00,
2013-07-21 01:11:00,65.9,64.4,29.83,WSW,255,0.0,2.0,95,0.00,,,0.00,0.0,WUHU216DAVISVP2,2013-07-21 05:11:00,
2013-07-21 01:16:00,65.6,64.1,29.83,WSW,255,0.0,2.0,95,0.00,,,0.00,0.0,WUHU216DAVISVP2,2013-07-21 05:16:00,
2013-07-21 01:21:00,65.5,64.0,29.83,WSW,255,0.0,1.0,95,0.00,,,0.00,0.0,WUHU216DAVISVP2,2013-07-21 05:21:00,
2013-07-21 01:26:00,65.4,64.2,29.83,WSW,255,0.0,1.0,96,0.00,,,0.00,0.0,WUHU216DAVISVP2,2013-07-21 05:26:00,
2013-07-21 01:31:00,65.6,64.4,29.84,WSW,255,0.0,1.0,96,0.00,,,0.00,0.0,WUHU216DAVISVP2,2013-07-21 05:31:00,
2013-07-21 01:36:00,65.8,64.6,29.84,WSW,255,0.0,1.0,96,0.00,,,0.00,0.0,WUHU216DAVISVP2,2013-07-21 05:36:00,
2013-07-21 01:41:00,65.9,64.7,29.84,WSW,255,0.0,1.0,96,0.00,,,0.00,0.0,WUHU216DAVISVP2,2013-07-21 05:41:00,
2013-07-21 01:46:00,66.0,64.5,29.84,WSW,255,0.0,1.0,95,0.00,,,0.00,0.0,WUHU216DAVISVP2,2013-07-21 05:46:00,
2013-07-21 01:51:00,66.2,64.7,29.84,WSW,255,0.0,1.0,95,0.00,,,0.00,0.0,WUHU216DAVISVP2,2013-07-21 05:51:00,
2013-07-21 01:56:00,66.3,64.8,29.84,WSW,255,0.0,0.0,95,0.00,,,0.00,0.0,WUHU216DAVISVP2,2013-07-21 05:56:00,
2013-07-21 02:01:00,66.2,64.7,29.83,WSW,255,0.0,0.0,95,0.00,,,0.00,0.0,WUHU216DAVISVP2,2013-07-21 06:01:00,
2013-07-21 02:06:00,66.1,64.6,29.84,WSW,255,0.0,0.0,95,0.00,,,0.00,0.0,WUHU216DAVISVP2,2013-07-21 06:06:00,
2013-07-21 02:11:00,66.3,64.8,29.84,WSW,255,0.0,0.0,95,0.00,,,0.00,0.0,WUHU216DAVISVP2,2013-07-21 06:11:00,
2013-07-21 02:16:00,66.1,64.6,29.84,WSW,255,1.0,1.0,95,0.00,,,0.00,0.0,WUHU216DAVISVP2,2013-07-21 06:16:00,
2013-07-21 02:21:00,65.9,64.4,29.84,WSW,255,0.0,1.0,95,0.00,,,0.00,0.0,WUHU216DAVISVP2,2013-07-21 06:21:00,
2013-07-21 02:26:00,65.7,64.2,29.85,WSW,255,0.0,1.0,95,0.00,,,0.00,0.0,WUHU216DAVISVP2,2013-07-21 06:26:00,
2013-07-21 02:31:00,65.6,64.1,29.85,WSW,255,0.0,1.0,95,0.00,,,0.00,0.0,WUHU216DAVISVP2,2013-07-21 06:31:00,
2013-07-21 02:36:00,65.5,64.3,29.85,WSW,255,0.0,1.0,96,0.00,,,0.00,0.0,WUHU216DAVISVP2,2013-07-21 06:36:00,
2013-07-21 02:41:00,65.5,64.3,29.84,WSW,255,0.0,1.0,96,0.00,,,0.00,0.0,WUHU216DAVISVP2,2013-07-21 06:41:00,
2013-07-21 02:46:00,65.4,64.2,29.85,WSW,255,0.0,1.0,96,0.00,,,0.00,0.0,WUHU216DAVISVP2,2013-07-21 06:46:00,
2013-07-21 02:51:00,65.3,64.1,29.85,WSW,255,0.0,1.0,96,0.00,,,0.00,0.0,WUHU216DAVISVP2,2013-07-21 06:51:00,
2013-07-21 02:56:00,65.2,64.0,29.85,WSW,255,0.0,1.0,96,0.00,,,0.00,0.0,WUHU216DAVISVP2,2013-07-21 06:56:00,
2013-07-21 03:01:00,65.2,64.3,29.85,WSW,255,0.0,1.0,97,0.00,,,0.00,0.0,WUHU216DAVISVP2,2013-07-21 07:01:00,
2013-07-21 03:06:00,65.0,63.8,29.85,WSW,255,0.0,1.0,96,0.00,,,0.00,0.0,WUHU216DAVISVP2,2013-07-21 07:06:00,
2013-07-21 03:11:00,64.8,63.6,29.85,WSW,255,0.0,1.0,96,0.00,,,0.00,0.0,WUHU216DAVISVP2,2013-07-21 07:11:00,
2013-07-21 03:16:00,64.7,63.5,29.85,WSW,255,0.0,1.0,96,0.00,,,0.00,0.0,WUHU216DAVISVP2,2013-07-21 07:16:00,
2013-07-21 03:21:00,64.5,63.3,29.85,WSW,255,0.0,1.0,96,0.00,,,0.00,0.0,WUHU216DAVISVP2,2013-07-21 07:21:00,
2013-07-21 03:26:00,64.5,63.3,29.85,WSW,255,0.0,1.0,96,0.00,,,0.00,0.0,WUHU216DAVISVP2,2013-07-21 07:26:00,
2013-07-21 03:31:00,64.6,63.4,29.85,WSW,255,0.0,1.0,96,0.00,,,0.00,0.0,WUHU216DAVISVP2,2013-07-21 07:31:00,
2013-07-21 03:36:00,64.7,63.8,29.86,WSW,255,0.0,0.0,97,0.00,,,0.00,0.0,WUHU216DAVISVP2,2013-07-21 07:36:00,
2013-07-21 03:41:00,64.5,63.6,29.86,WSW,255,0.0,0.0,97,0.00,,,0.00,0.0,WUHU216DAVISVP2,2013-07-21 07:41:00,
2013-07-21 03:46:00,64.3,63.1,29.85,WSW,255,0.0,0.0,96,0.00,,,0.00,0.0,WUHU216DAVISVP2,2013-07-21 07:46:00,
2013-07-21 03:51:00,64.2,63.0,29.86,WSW,255,0.0,0.0,96,0.00,,,0.00,0.0,WUHU216DAVISVP2,2013-07-21 07:51:00,
2013-07-21 03:56:00,64.1,63.2,29.86,WSW,255,0.0,0.0,97,0.00,,,0.00,0.0,WUHU216DAVISVP2,2013-07-21 07:56:00,
2013-07-21 04:01:00,64.0,63.1,29.86,WSW,255,0.0,0.0,97,0.00,,,0.00,0.0,WUHU216DAVISVP2,2013-07-21 08:01:00,
2013-07-21 04:06:00,63.8,62.9,29.86,WSW,255,0.0,0.0,97,0.00,,,0.00,0.0,WUHU216DAVISVP2,2013-07-21 08:06:00,
2013-07-21 04:11:00,63.7,62.8,29.87,WSW,255,0.0,0.0,97,0.00,,,0.00,0.0,WUHU216DAVISVP2,2013-07-21 08:11:00,
2013-07-21 04:16:00,63.5,62.3,29.87,WSW,255,0.0,0.0,96,0.00,,,0.00,0.0,WUHU216DAVISVP2,2013-07-21 08:16:00,
2013-07-21 04:21:00,63.5,62.6,29.87,WSW,255,0.0,0.0,97,0.00,,,0.00,0.0,WUHU216DAVISVP2,2013-07-21 08:21:00,
2013-07-21 04:26:00,63.4,62.5,29.87,WSW,255,0.0,0.0,97,0.00,,,0.00,0.0,WUHU216DAVISVP2,2013-07-21 08:26:00,
2013-07-21 04:31:00,63.2,62.3,29.87,WSW,255,0.0,0.0,97,0.00,,,0.00,0.0,WUHU216DAVISVP2,2013-07-21 08:31:00,
2013-07-21 04:36:00,63.1,62.2,29.87,WSW,255,0.0,0.0,97,0.00,,,0.00,0.0,WUHU216DAVISVP2,2013-07-21 08:36:00,
2013-07-21 04:41:00,63.0,62.1,29.87,WSW,255,0.0,0.0,97,0.00,,,0.00,0.0,WUHU216DAVISVP2,2013-07-21 08:41:00,
2013-07-21 04:46:00,62.8,61.9,29.87,WSW,255,0.0,0.0,97,0.00,,,0.00,0.0,WUHU216DAVISVP2,2013-07-21 08:46:00,
2013-07-21 04:51:00,62.7,61.8,29.88,WSW,255,0.0,0.0,97,0.00,,,0.00,0.0,WUHU216DAVISVP2,2013-07-21 08:51:00,
2013-07-21 04:56:00,62.6,61.7,29.88,WSW,255,0.0,0.0,97,0.00,,,0.00,0.0,WUHU216DAVISVP2,2013-07-21 08:56:00,
2013-07-21 05:01:00,62.5,61.6,29.88,WSW,255,0.0,0.0,97,0.00,,,0.00,0.0,WUHU216DAVISVP2,2013-07-21 09:01:00,
2013-07-21 05:06:00,62.4,61.5,29.88,WSW,255,0.0,0.0,97,0.00,,,0.00,0.0,WUHU216DAVISVP2,2013-07-21 09:06:00,
2013-07-21 05:11:00,62.2,61.3,29.88,WSW,255,0.0,0.0,97,0.00,,,0.00,0.0,WUHU216DAVISVP2,2013-07-21 09:11:00,
2013-07-21 05:16:00,62.2,61.3,29.88,WSW,255,0.0,0.0,97,0.00,,,0.00,0.0,WUHU216DAVISVP2,2013-07-21 09:16:00,
2013-07-21 05:21:00,62.0,61.1,29.88,WSW,255,0.0,0.0,97,0.00,,,0.00,0.0,WUHU216DAVISVP2,2013-07-21 09:21:00,
2013-07-21 05:26:00,62.0,61.1,29.88,WSW,255,0.0,0.0,97,0.00,,,0.00,0.0,WUHU216DAVISVP2,2013-07-21 09:26:00,
2013-07-21 05:31:00,61.9,61.0,29.89,WSW,255,0.0,0.0,97,0.00,,,0.00,5.0,WUHU216DAVISVP2,2013-07-21 09:31:00,
2013-07-21 05:36:00,61.9,61.0,29.89,WSW,255,0.0,0.0,97,0.00,,,0.00,7.0,WUHU216DAVISVP2,2013-07-21 09:36:00,
2013-07-21 05:41:00,61.9,61.0,29.90,WSW,255,0.0,0.0,97,0.00,,,0.00,9.0,WUHU216DAVISVP2,2013-07-21 09:41:00,
2013-07-21 05:46:00,62.0,61.1,29.90,WSW,255,0.0,0.0,97,0.00,,,0.00,11.0,WUHU216DAVISVP2,2013-07-21 09:46:00,
2013-07-21 05:51:00,61.9,61.0,29.90,WSW,255,0.0,0.0,97,0.00,,,0.00,11.0,WUHU216DAVISVP2,2013-07-21 09:51:00,
2013-07-21 05:56:00,61.8,60.9,29.90,WSW,255,0.0,0.0,97,0.00,,,0.00,12.0,WUHU216DAVISVP2,2013-07-21 09:56:00,
2013-07-21 06:01:00,61.7,60.8,29.90,WSW,255,0.0,0.0,97,0.00,,,0.00,14.0,WUHU216DAVISVP2,2013-07-21 10:01:00,
2013-07-21 06:06:00,61.6,60.7,29.90,WSW,255,0.0,0.0,97,0.00,,,0.00,16.0,WUHU216DAVISVP2,2013-07-21 10:06:00,
2013-07-21 06:11:00,61.6,60.7,29.90,WSW,255,0.0,0.0,97,0.00,,,0.00,16.0,WUHU216DAVISVP2,2013-07-21 10:11:00,
2013-07-21 06:16:00,61.6,60.7,29.90,WSW,255,0.0,0.0,97,0.00,,,0.00,18.0,WUHU216DAVISVP2,2013-07-21 10:16:00,
2013-07-21 06:21:00,61.7,60.8,29.91,WSW,255,0.0,0.0,97,0.00,,,0.00,19.0,WUHU216DAVISVP2,2013-07-21 10:21:00,
2013-07-21 06:26:00,62.0,61.1,29.90,WSW,255,0.0,0.0,97,0.00,,,0.00,21.0,WUHU216DAVISVP2,2013-07-21 10:26:00,
2013-07-21 06:31:00,62.1,61.2,29.91,WSW,255,0.0,0.0,97,0.00,,,0.00,23.0,WUHU216DAVISVP2,2013-07-21 10:31:00,
2013-07-21 06:36:00,62.0,61.1,29.91,WSW,255,0.0,0.0,97,0.00,,,0.00,25.0,WUHU216DAVISVP2,2013-07-21 10:36:00,
2013-07-21 06:41:00,62.0,61.1,29.91,WSW,255,0.0,0.0,97,0.00,,,0.00,28.0,WUHU216DAVISVP2,2013-07-21 10:41:00,
2013-07-21 06:46:00,62.2,61.3,29.92,WSW,255,0.0,0.0,97,0.00,,,0.00,32.0,WUHU216DAVISVP2,2013-07-21 10:46:00,
2013-07-21 06:51:00,62.5,61.6,29.92,WSW,255,0.0,0.0,97,0.00,,,0.00,37.0,WUHU216DAVISVP2,2013-07-21 10:51:00,
2013-07-21 06:56:00,63.0,61.8,29.92,WSW,255,0.0,0.0,96,0.00,,,0.00,46.0,WUHU216DAVISVP2,2013-07-21 10:56:00,
2013-07-21 07:01:00,63.1,61.9,29.92,WSW,255,0.0,0.0,96,0.00,,,0.00,49.0,WUHU216DAVISVP2,2013-07-21 11:01:00,
2013-07-21 07:06:00,63.2,62.0,29.92,WSW,255,0.0,0.0,96,0.00,,,0.00,51.0,WUHU216DAVISVP2,2013-07-21 11:06:00,
2013-07-21 07:11:00,63.4,62.2,29.92,WSW,255,0.0,0.0,96,0.00,,,0.00,54.0,WUHU216DAVISVP2,2013-07-21 11:11:00,
2013-07-21 07:16:00,63.6,62.4,29.92,WSW,255,0.0,0.0,96,0.00,,,0.00,51.0,WUHU216DAVISVP2,2013-07-21 11:16:00,
2013-07-21 07:21:00,63.8,62.0,29.92,WSW,255,0.0,0.0,94,0.00,,,0.00,37.0,WUHU216DAVISVP2,2013-07-21 11:21:00,
2013-07-21 07:26:00,64.0,62.2,29.92,WSW,255,0.0,0.0,94,0.00,,,0.00,62.0,WUHU216DAVISVP2,2013-07-21 11:26:00,
2013-07-21 07:31:00,64.3,62.5,29.92,WSW,255,0.0,0.0,94,0.00,,,0.00,72.0,WUHU216DAVISVP2,2013-07-21 11:31:00,
2013-07-21 07:36:00,64.8,63.0,29.93,WSW,255,0.0,0.0,94,0.00,,,0.00,63.0,WUHU216DAVISVP2,2013-07-21 11:36:00,
2013-07-21 07:41:00,64.9,62.8,29.93,WSW,255,0.0,0.0,93,0.00,,,0.00,63.0,WUHU216DAVISVP2,2013-07-21 11:41:00,
2013-07-21 07:46:00,65.0,62.9,29.93,WSW,255,0.0,0.0,93,0.00,,,0.00,72.0,WUHU216DAVISVP2,2013-07-21 11:46:00,
2013-07-21 07:51:00,65.5,63.4,29.93,WSW,255,0.0,0.0,93,0.00,,,0.00,91.0,WUHU216DAVISVP2,2013-07-21 11:51:00,
2013-07-21 07:56:00,66.2,63.8,29.93,WSW,255,0.0,0.0,92,0.00,,,0.00,128.0,WUHU216DAVISVP2,2013-07-21 11:56:00,
2013-07-21 08:01:00,66.8,64.7,29.93,WSW,255,0.0,0.0,93,0.00,,,0.00,144.0,WUHU216DAVISVP2,2013-07-21 12:01:00,
2013-07-21 08:06:00,67.4,65.0,29.94,WSW,255,0.0,0.0,92,0.00,,,0.00,169.0,WUHU216DAVISVP2,2013-07-21 12:06:00,
2013-07-21 08:11:00,67.8,64.7,29.94,WSW,255,0.0,0.0,90,0.00,,,0.00,167.0,WUHU216DAVISVP2,2013-07-21 12:11:00,
2013-07-21 08:16:00,68.2,64.8,29.94,WSW,255,0.0,0.0,89,0.00,,,0.00,146.0,WUHU216DAVISVP2,2013-07-21 12:16:00,
2013-07-21 08:21:00,68.0,64.3,29.94,WSW,255,0.0,0.0,88,0.00,,,0.00,137.0,WUHU216DAVISVP2,2013-07-21 12:21:00,
2013-07-21 08:26:00,67.7,63.7,29.94,WSW,256,0.0,0.0,87,0.00,,,0.00,128.0,WUHU216DAVISVP2,2013-07-21 12:26:00,
2013-07-21 08:31:00,68.1,64.7,29.94,WSW,256,0.0,0.0,89,0.00,,,0.00,132.0,WUHU216DAVISVP2,2013-07-21 12:31:00,
2013-07-21 08:36:00,68.5,65.1,29.94,WSW,256,0.0,0.0,89,0.00,,,0.00,132.0,WUHU216DAVISVP2,2013-07-21 12:36:00,
2013-07-21 08:41:00,69.1,65.1,29.94,WSW,256,0.0,0.0,87,0.00,,,0.00,134.0,WUHU216DAVISVP2,2013-07-21 12:41:00,
2013-07-21 08:46:00,69.4,65.4,29.94,WSW,256,0.0,0.0,87,0.00,,,0.00,193.0,WUHU216DAVISVP2,2013-07-21 12:46:00,
2013-07-21 08:51:00,69.7,65.7,29.94,WSW,256,0.0,0.0,87,0.00,,,0.00,283.0,WUHU216DAVISVP2,2013-07-21 12:51:00,
2013-07-21 08:56:00,70.4,66.7,29.94,WSW,256,0.0,0.0,88,0.00,,,0.00,473.0,WUHU216DAVISVP2,2013-07-21 12:56:00,
2013-07-21 09:01:00,71.1,66.7,29.94,WSW,258,0.0,0.0,86,0.00,,,0.00,489.0,WUHU216DAVISVP2,2013-07-21 13:01:00,
2013-07-21 09:06:00,72.1,65.9,29.94,WSW,258,0.0,0.0,81,0.00,,,0.00,369.0,WUHU216DAVISVP2,2013-07-21 13:06:00,
2013-07-21 09:11:00,72.4,66.7,29.94,WSW,258,0.0,0.0,82,0.00,,,0.00,541.0,WUHU216DAVISVP2,2013-07-21 13:11:00,
2013-07-21 09:16:00,73.2,63.8,29.94,SSW,203,1.0,1.0,72,0.00,,,0.00,534.0,WUHU216DAVISVP2,2013-07-21 13:16:00,
2013-07-21 09:21:00,74.6,66.3,29.94,SSW,195,1.0,1.0,75,0.00,,,0.00,408.0,WUHU216DAVISVP2,2013-07-21 13:21:00,
2013-07-21 09:26:00,74.2,65.5,29.94,ENE,72,1.0,2.0,74,0.00,,,0.00,501.0,WUHU216DAVISVP2,2013-07-21 13:26:00,
2013-07-21 09:31:00,74.8,67.6,29.94,ENE,71,0.0,2.0,78,0.00,,,0.00,355.0,WUHU216DAVISVP2,2013-07-21 13:31:00,
2013-07-21 09:36:00,73.8,62.8,29.94,WSW,240,2.0,3.0,68,0.00,,,0.00,427.0,WUHU216DAVISVP2,2013-07-21 13:36:00,
2013-07-21 09:41:00,74.6,66.1,29.94,SW,236,0.0,3.0,75,0.00,,,0.00,585.0,WUHU216DAVISVP2,2013-07-21 13:41:00,
2013-07-21 09:46:00,76.0,65.3,29.94,SW,229,0.0,3.0,69,0.00,,,0.00,496.0,WUHU216DAVISVP2,2013-07-21 13:46:00,
2013-07-21 09:51:00,77.2,67.7,29.94,East,80,0.0,3.0,72,0.00,,,0.00,635.0,WUHU216DAVISVP2,2013-07-21 13:51:00,
2013-07-21 09:56:00,77.3,66.1,29.94,East,89,0.0,2.0,68,0.00,,,0.00,677.0,WUHU216DAVISVP2,2013-07-21 13:56:00,
2013-07-21 10:01:00,77.1,65.5,29.94,ENE,71,1.0,2.0,67,0.00,,,0.00,526.0,WUHU216DAVISVP2,2013-07-21 14:01:00,
2013-07-21 10:06:00,75.4,63.9,29.94,ENE,71,0.0,2.0,67,0.00,,,0.00,404.0,WUHU216DAVISVP2,2013-07-21 14:06:00,
2013-07-21 10:11:00,75.2,64.5,29.95,West,267,1.0,3.0,69,0.00,,,0.00,485.0,WUHU216DAVISVP2,2013-07-21 14:11:00,
2013-07-21 10:16:00,74.6,62.5,29.94,WSW,248,1.0,3.0,66,0.00,,,0.00,462.0,WUHU216DAVISVP2,2013-07-21 14:16:00,
2013-07-21 10:21:00,74.6,64.6,29.95,WSW,248,1.0,3.0,71,0.00,,,0.00,404.0,WUHU216DAVISVP2,2013-07-21 14:21:00,
2013-07-21 10:26:00,75.3,64.6,29.95,WNW,283,0.0,3.0,69,0.00,,,0.00,432.0,WUHU216DAVISVP2,2013-07-21 14:26:00,
2013-07-21 10:31:00,75.4,64.3,29.95,West,268,2.0,3.0,68,0.00,,,0.00,545.0,WUHU216DAVISVP2,2013-07-21 14:31:00,
2013-07-21 10:36:00,76.7,65.6,29.95,West,264,0.0,3.0,68,0.00,,,0.00,698.0,WUHU216DAVISVP2,2013-07-21 14:36:00,
2013-07-21 10:41:00,77.0,67.5,29.95,WNW,287,0.0,3.0,72,0.00,,,0.00,570.0,WUHU216DAVISVP2,2013-07-21 14:41:00,
2013-07-21 10:46:00,77.3,64.4,29.95,ENE,65,1.0,4.0,64,0.00,,,0.00,448.0,WUHU216DAVISVP2,2013-07-21 14:46:00,
2013-07-21 10:51:00,76.7,65.1,29.95,WSW,250,2.0,4.0,67,0.00,,,0.00,578.0,WUHU216DAVISVP2,2013-07-21 14:51:00,
2013-07-21 10:56:00,76.4,64.4,29.95,ENE,71,3.0,4.0,66,0.00,,,0.00,343.0,WUHU216DAVISVP2,2013-07-21 14:56:00,
2013-07-21 11:01:00,76.4,64.2,29.95,SSW,205,1.0,4.0,66,0.00,,,0.00,350.0,WUHU216DAVISVP2,2013-07-21 15:01:00,
2013-07-21 11:06:00,77.9,66.1,29.95,West,263,0.0,4.0,67,0.00,,,0.00,714.0,WUHU216DAVISVP2,2013-07-21 15:06:00,
2013-07-21 11:11:00,78.1,63.8,29.95,East,84,1.0,3.0,61,0.00,,,0.00,497.0,WUHU216DAVISVP2,2013-07-21 15:11:00,
2013-07-21 11:16:00,77.4,64.0,29.95,East,84,1.0,3.0,63,0.00,,,0.00,346.0,WUHU216DAVISVP2,2013-07-21 15:16:00,
2013-07-21 11:21:00,77.5,64.6,29.95,NNW,333,1.0,3.0,64,0.00,,,0.00,371.0,WUHU216DAVISVP2,2013-07-21 15:21:00,
2013-07-21 11:26:00,77.9,63.6,29.95,NE,42,1.0,3.0,61,0.00,,,0.00,613.0,WUHU216DAVISVP2,2013-07-21 15:26:00,
2013-07-21 11:31:00,78.3,64.4,29.95,NE,53,2.0,4.0,62,0.00,,,0.00,731.0,WUHU216DAVISVP2,2013-07-21 15:31:00,
2013-07-21 11:36:00,79.6,67.5,29.95,NE,38,0.0,4.0,66,0.00,,,0.00,673.0,WUHU216DAVISVP2,2013-07-21 15:36:00,
2013-07-21 11:41:00,80.3,64.7,29.95,NNE,30,1.0,4.0,59,0.00,,,0.00,603.0,WUHU216DAVISVP2,2013-07-21 15:41:00,
2013-07-21 11:46:00,78.9,64.8,29.95,ESE,102,1.0,4.0,62,0.00,,,0.00,635.0,WUHU216DAVISVP2,2013-07-21 15:46:00,
2013-07-21 11:51:00,79.1,68.7,29.95,ESE,102,0.0,3.0,70,0.00,,,0.00,645.0,WUHU216DAVISVP2,2013-07-21 15:51:00,
2013-07-21 11:56:00,78.2,63.4,29.95,West,273,1.0,3.0,60,0.00,,,0.00,285.0,WUHU216DAVISVP2,2013-07-21 15:56:00,
2013-07-21 12:01:00,77.0,66.7,29.95,West,280,0.0,3.0,70,0.00,,,0.00,325.0,WUHU216DAVISVP2,2013-07-21 16:01:00,
2013-07-21 12:06:00,79.6,68.8,29.95,West,280,1.0,3.0,69,0.00,,,0.00,754.0,WUHU216DAVISVP2,2013-07-21 16:06:00,
2013-07-21 12:11:00,79.6,64.2,29.95,SSE,153,1.0,3.0,59,0.00,,,0.00,403.0,WUHU216DAVISVP2,2013-07-21 16:11:00,
2013-07-21 12:16:00,78.0,64.2,29.95,South,179,0.0,2.0,62,0.00,,,0.00,301.0,WUHU216DAVISVP2,2013-07-21 16:16:00,
2013-07-21 12:21:00,77.8,66.6,29.95,South,179,0.0,2.0,68,0.00,,,0.00,682.0,WUHU216DAVISVP2,2013-07-21 16:21:00,
2013-07-21 12:26:00,79.0,69.0,29.95,South,184,0.0,2.0,71,0.00,,,0.00,791.0,WUHU216DAVISVP2,2013-07-21 16:26:00,
2013-07-21 12:31:00,78.6,68.4,29.95,WSW,246,3.0,3.0,71,0.00,,,0.00,807.0,WUHU216DAVISVP2,2013-07-21 16:31:00,
2013-07-21 12:36:00,78.2,63.6,29.95,WSW,250,1.0,4.0,61,0.00,,,0.00,461.0,WUHU216DAVISVP2,2013-07-21 16:36:00,
2013-07-21 12:41:00,79.0,67.8,29.95,WSW,250,0.0,4.0,68,0.00,,,0.00,478.0,WUHU216DAVISVP2,2013-07-21 16:41:00,
2013-07-21 12:46:00,78.6,66.5,29.95,WSW,252,2.0,4.0,66,0.00,,,0.00,260.0,WUHU216DAVISVP2,2013-07-21 16:46:00,
2013-07-21 12:51:00,79.2,65.3,29.95,WSW,258,2.0,3.0,62,0.00,,,0.00,1060.0,WUHU216DAVISVP2,2013-07-21 16:51:00,
2013-07-21 12:56:00,79.6,61.1,29.95,WNW,284,2.0,7.0,53,0.00,,,0.00,1016.0,WUHU216DAVISVP2,2013-07-21 16:56:00,
2013-07-21 13:01:00,80.0,65.6,29.95,WSW,241,2.0,7.0,61,0.00,,,0.00,1032.0,WUHU216DAVISVP2,2013-07-21 17:01:00,
2013-07-21 13:06:00,79.8,62.9,29.95,WSW,252,2.0,7.0,56,0.00,,,0.00,949.0,WUHU216DAVISVP2,2013-07-21 17:06:00,
2013-07-21 13:11:00,80.3,63.4,29.95,West,280,3.0,7.0,56,0.00,,,0.00,1213.0,WUHU216DAVISVP2,2013-07-21 17:11:00,
2013-07-21 13:16:00,79.3,62.4,29.95,West,280,2.0,5.0,56,0.00,,,0.00,260.0,WUHU216DAVISVP2,2013-07-21 17:16:00,
2013-07-21 13:21:00,80.9,67.8,29.95,West,281,0.0,5.0,64,0.00,,,0.00,1150.0,WUHU216DAVISVP2,2013-07-21 17:21:00,
2013-07-21 13:26:00,80.8,68.6,29.94,WSW,244,0.0,4.0,66,0.00,,,0.00,341.0,WUHU216DAVISVP2,2013-07-21 17:26:00,
2013-07-21 13:31:00,80.1,62.0,29.94,South,185,2.0,4.0,54,0.00,,,0.00,288.0,WUHU216DAVISVP2,2013-07-21 17:31:00,
2013-07-21 13:36:00,79.4,64.8,29.94,SSW,198,0.0,4.0,61,0.00,,,0.00,1164.0,WUHU216DAVISVP2,2013-07-21 17:36:00,
2013-07-21 13:41:00,78.0,63.5,29.94,WSW,244,2.0,4.0,61,0.00,,,0.00,446.0,WUHU216DAVISVP2,2013-07-21 17:41:00,
2013-07-21 13:46:00,78.4,64.5,29.94,NNE,24,1.0,4.0,62,0.00,,,0.00,301.0,WUHU216DAVISVP2,2013-07-21 17:46:00,
2013-07-21 13:51:00,80.0,68.7,29.94,NNE,12,2.0,4.0,68,0.00,,,0.00,515.0,WUHU216DAVISVP2,2013-07-21 17:51:00,
2013-07-21 13:56:00,79.1,63.8,29.94,North,355,1.0,4.0,59,0.00,,,0.00,185.0,WUHU216DAVISVP2,2013-07-21 17:56:00,
2013-07-21 14:01:00,78.1,63.3,29.94,NW,311,0.0,2.0,60,0.00,,,0.00,237.0,WUHU216DAVISVP2,2013-07-21 18:01:00,
2013-07-21 14:06:00,79.0,63.7,29.94,NNW,345,0.0,2.0,59,0.00,,,0.00,378.0,WUHU216DAVISVP2,2013-07-21 18:06:00,
2013-07-21 14:11:00,79.5,64.6,29.94,West,268,2.0,4.0,60,0.00,,,0.00,1023.0,WUHU216DAVISVP2,2013-07-21 18:11:00,
2013-07-21 14:16:00,80.5,63.0,29.94,West,275,4.0,7.0,55,0.00,,,0.00,1048.0,WUHU216DAVISVP2,2013-07-21 18:16:00,
2013-07-21 14:21:00,80.4,62.4,29.94,WNW,289,3.0,7.0,54,0.00,,,0.00,1055.0,WUHU216DAVISVP2,2013-07-21 18:21:00,
2013-07-21 14:26:00,81.2,66.2,29.94,NW,311,2.0,7.0,60,0.00,,,0.00,204.0,WUHU216DAVISVP2,2013-07-21 18:26:00,
2013-07-21 14:31:00,80.9,62.3,29.94,SW,227,0.0,7.0,53,0.00,,,0.00,204.0,WUHU216DAVISVP2,2013-07-21 18:31:00,
2013-07-21 14:36:00,82.0,63.4,29.93,West,268,1.0,4.0,53,0.00,,,0.00,1095.0,WUHU216DAVISVP2,2013-07-21 18:36:00,
2013-07-21 14:41:00,82.1,65.4,29.93,WSW,239,3.0,4.0,57,0.00,,,0.00,1095.0,WUHU216DAVISVP2,2013-07-21 18:41:00,
2013-07-21 14:46:00,81.8,69.3,29.94,SW,232,1.0,4.0,66,0.00,,,0.00,346.0,WUHU216DAVISVP2,2013-07-21 18:46:00,
2013-07-21 14:51:00,80.0,60.2,29.94,SE,133,1.0,4.0,51,0.00,,,0.00,127.0,WUHU216DAVISVP2,2013-07-21 18:51:00,
2013-07-21 14:56:00,78.8,66.5,29.94,SE,133,2.0,4.0,66,0.00,,,0.00,132.0,WUHU216DAVISVP2,2013-07-21 18:56:00,
2013-07-21 15:01:00,77.4,67.3,29.94,SE,133,2.0,3.0,71,0.00,,,0.00,167.0,WUHU216DAVISVP2,2013-07-21 19:01:00,
2013-07-21 15:06:00,76.9,67.2,29.94,SE,133,2.0,3.0,72,0.00,,,0.00,246.0,WUHU216DAVISVP2,2013-07-21 19:06:00,
2013-07-21 15:11:00,77.5,67.4,29.94,SE,133,1.0,2.0,71,0.00,,,0.00,229.0,WUHU216DAVISVP2,2013-07-21 19:11:00,
2013-07-21 15:16:00,77.5,66.5,29.94,SE,133,0.0,2.0,69,0.00,,,0.00,243.0,WUHU216DAVISVP2,2013-07-21 19:16:00,
2013-07-21 15:21:00,80.0,68.9,29.94,SE,133,1.0,2.0,69,0.00,,,0.00,912.0,WUHU216DAVISVP2,2013-07-21 19:21:00,
2013-07-21 15:26:00,80.9,63.4,29.93,West,265,0.0,2.0,55,0.00,,,0.00,211.0,WUHU216DAVISVP2,2013-07-21 19:26:00,
2013-07-21 15:31:00,80.2,67.2,29.94,West,265,0.0,2.0,64,0.00,,,0.00,269.0,WUHU216DAVISVP2,2013-07-21 19:31:00,
2013-07-21 15:36:00,79.0,66.5,29.94,West,265,1.0,2.0,65,0.00,,,0.00,185.0,WUHU216DAVISVP2,2013-07-21 19:36:00,
2013-07-21 15:41:00,77.7,66.5,29.94,West,265,1.0,2.0,68,0.00,,,0.00,176.0,WUHU216DAVISVP2,2013-07-21 19:41:00,
2013-07-21 15:46:00,77.3,67.0,29.94,West,265,2.0,2.0,70,0.00,,,0.00,278.0,WUHU216DAVISVP2,2013-07-21 19:46:00,
2013-07-21 15:51:00,77.8,67.0,29.94,West,265,1.0,2.0,69,0.00,,,0.00,227.0,WUHU216DAVISVP2,2013-07-21 19:51:00,
2013-07-21 15:56:00,81.1,66.1,29.93,NW,317,1.0,2.0,60,0.00,,,0.00,795.0,WUHU216DAVISVP2,2013-07-21 19:56:00,
2013-07-21 16:01:00,79.8,64.9,29.93,NW,317,1.0,2.0,60,0.00,,,0.00,216.0,WUHU216DAVISVP2,2013-07-21 20:01:00,
2013-07-21 16:06:00,80.7,68.1,29.93,NW,317,1.0,2.0,65,0.00,,,0.00,780.0,WUHU216DAVISVP2,2013-07-21 20:06:00,
2013-07-21 16:11:00,80.3,64.4,29.93,NW,317,1.0,2.0,58,0.00,,,0.00,155.0,WUHU216DAVISVP2,2013-07-21 20:11:00,
2013-07-21 16:16:00,78.9,66.4,29.93,NW,317,1.0,2.0,65,0.00,,,0.00,171.0,WUHU216DAVISVP2,2013-07-21 20:16:00,
2013-07-21 16:21:00,77.9,67.1,29.93,NW,319,2.0,2.0,69,0.00,,,0.00,179.0,WUHU216DAVISVP2,2013-07-21 20:21:00,
2013-07-21 16:26:00,77.2,67.3,29.93,NW,319,2.0,3.0,71,0.00,,,0.00,135.0,WUHU216DAVISVP2,2013-07-21 20:26:00,
2013-07-21 16:31:00,76.4,67.3,29.94,NW,319,2.0,3.0,73,0.00,,,0.00,130.0,WUHU216DAVISVP2,2013-07-21 20:31:00,
2013-07-21 16:36:00,75.9,66.0,29.94,NW,319,1.0,3.0,71,0.00,,,0.00,142.0,WUHU216DAVISVP2,2013-07-21 20:36:00,
2013-07-21 16:41:00,75.7,65.8,29.94,NW,319,2.0,2.0,71,0.00,,,0.00,111.0,WUHU216DAVISVP2,2013-07-21 20:41:00,
2013-07-21 16:46:00,75.3,65.8,29.94,NW,319,1.0,2.0,72,0.00,,,0.00,118.0,WUHU216DAVISVP2,2013-07-21 20:46:00,
2013-07-21 16:51:00,75.2,66.1,29.93,NNW,333,1.0,2.0,73,0.00,,,0.00,227.0,WUHU216DAVISVP2,2013-07-21 20:51:00,
2013-07-21 16:56:00,76.7,68.7,29.93,NNW,334,0.0,2.0,76,0.00,,,0.00,251.0,WUHU216DAVISVP2,2013-07-21 20:56:00,
2013-07-21 17:01:00,78.0,68.4,29.93,NNW,335,0.0,2.0,72,0.00,,,0.00,139.0,WUHU216DAVISVP2,2013-07-21 21:01:00,
2013-07-21 17:06:00,77.1,67.2,29.93,NNW,340,2.0,3.0,71,0.00,,,0.00,120.0,WUHU216DAVISVP2,2013-07-21 21:06:00,
2013-07-21 17:11:00,76.4,66.9,29.93,NNW,340,2.0,3.0,72,0.00,,,0.00,107.0,WUHU216DAVISVP2,2013-07-21 21:11:00,
2013-07-21 17:16:00,75.7,64.6,29.93,NNW,343,1.0,3.0,68,0.00,,,0.00,104.0,WUHU216DAVISVP2,2013-07-21 21:16:00,
2013-07-21 17:21:00,75.1,66.0,29.93,NNW,343,0.0,3.0,73,0.00,,,0.00,86.0,WUHU216DAVISVP2,2013-07-21 21:21:00,
2013-07-21 17:26:00,74.8,65.7,29.93,NNW,345,1.0,2.0,73,0.00,,,0.00,100.0,WUHU216DAVISVP2,2013-07-21 21:26:00,
2013-07-21 17:31:00,75.2,66.9,29.93,NNW,345,1.0,2.0,75,0.00,,,0.00,221.0,WUHU216DAVISVP2,2013-07-21 21:31:00,
2013-07-21 17:36:00,77.3,67.2,29.93,NNW,345,1.0,2.0,71,0.00,,,0.00,439.0,WUHU216DAVISVP2,2013-07-21 21:36:00,
2013-07-21 17:41:00,76.6,66.9,29.93,NNW,345,1.0,2.0,72,0.00,,,0.00,95.0,WUHU216DAVISVP2,2013-07-21 21:41:00,
2013-07-21 17:46:00,75.7,66.4,29.93,NNW,345,1.0,2.0,73,0.00,,,0.00,83.0,WUHU216DAVISVP2,2013-07-21 21:46:00,
2013-07-21 17:51:00,75.3,66.0,29.93,NNW,345,2.0,2.0,73,0.00,,,0.00,111.0,WUHU216DAVISVP2,2013-07-21 21:51:00,
2013-07-21 17:56:00,75.3,66.4,29.93,NE,55,1.0,2.0,74,0.00,,,0.00,121.0,WUHU216DAVISVP2,2013-07-21 21:56:00,
2013-07-21 18:01:00,75.1,65.1,29.93,NE,55,1.0,2.0,71,0.00,,,0.00,121.0,WUHU216DAVISVP2,2013-07-21 22:01:00,
2013-07-21 18:06:00,75.4,64.7,29.93,NE,55,0.0,2.0,69,0.00,,,0.00,118.0,WUHU216DAVISVP2,2013-07-21 22:06:00,
2013-07-21 18:11:00,75.5,64.2,29.93,NE,55,1.0,2.0,68,0.00,,,0.00,83.0,WUHU216DAVISVP2,2013-07-21 22:11:00,
2013-07-21 18:16:00,74.9,65.8,29.93,NE,55,0.0,1.0,73,0.00,,,0.00,54.0,WUHU216DAVISVP2,2013-07-21 22:16:00,
2013-07-21 18:46:00,73.9,66.4,29.93,NE,53,0.0,1.0,77,0.00,,,0.00,70.0,WUHU216DAVISVP2,2013-07-21 22:46:00,
2013-07-21 18:51:00,74.1,66.8,29.93,NE,53,0.0,1.0,78,0.00,,,0.00,58.0,WUHU216DAVISVP2,2013-07-21 22:51:00,
2013-07-21 18:56:00,74.2,66.1,29.93,NE,53,1.0,1.0,76,0.00,,,0.00,63.0,WUHU216DAVISVP2,2013-07-21 22:56:00,
2013-07-21 19:01:00,74.3,65.9,29.94,NE,53,1.0,2.0,75,0.00,,,0.00,58.0,WUHU216DAVISVP2,2013-07-21 23:01:00,
2013-07-21 19:06:00,74.0,65.2,29.94,NE,53,1.0,2.0,74,0.00,,,0.00,47.0,WUHU216DAVISVP2,2013-07-21 23:06:00,
2013-07-21 19:11:00,73.8,65.2,29.94,NE,53,1.0,2.0,74,0.00,,,0.00,42.0,WUHU216DAVISVP2,2013-07-21 23:11:00,
2013-07-21 19:16:00,73.6,65.6,29.94,NE,52,1.0,2.0,76,0.00,,,0.00,42.0,WUHU216DAVISVP2,2013-07-21 23:16:00,
2013-07-21 19:21:00,73.4,65.0,29.94,NE,53,1.0,2.0,75,0.00,,,0.00,51.0,WUHU216DAVISVP2,2013-07-21 23:21:00,
2013-07-21 19:26:00,73.6,66.3,29.94,NE,53,1.0,2.0,78,0.00,,,0.00,49.0,WUHU216DAVISVP2,2013-07-21 23:26:00,
2013-07-21 19:31:00,73.7,66.8,29.95,NE,52,0.0,2.0,79,0.00,,,0.00,33.0,WUHU216DAVISVP2,2013-07-21 23:31:00,
2013-07-21 19:36:00,73.6,65.9,29.94,NE,52,0.0,2.0,77,0.00,,,0.00,26.0,WUHU216DAVISVP2,2013-07-21 23:36:00,
2013-07-21 19:41:00,73.2,65.6,29.95,NE,52,1.0,2.0,77,0.00,,,0.00,12.0,WUHU216DAVISVP2,2013-07-21 23:41:00,
2013-07-21 19:46:00,72.7,65.4,29.95,NE,52,1.0,2.0,78,0.00,,,0.00,9.0,WUHU216DAVISVP2,2013-07-21 23:46:00,
2013-07-21 19:51:00,72.1,64.5,29.94,NE,53,1.0,2.0,77,0.00,,,0.00,9.0,WUHU216DAVISVP2,2013-07-21 23:51:00,
2013-07-21 19:56:00,71.6,64.0,29.94,NE,52,0.0,2.0,77,0.00,,,0.00,11.0,WUHU216DAVISVP2,2013-07-21 23:56:00,
2013-07-21 20:01:00,71.5,64.3,29.95,NE,52,0.0,2.0,78,0.00,,,0.00,11.0,WUHU216DAVISVP2,2013-07-22 00:01:00,
2013-07-21 20:06:00,71.3,65.2,29.95,NE,52,0.0,1.0,81,0.00,,,0.00,12.0,WUHU216DAVISVP2,2013-07-22 00:06:00,
2013-07-21 20:11:00,71.1,65.4,29.95,NE,52,0.0,1.0,82,0.00,,,0.00,9.0,WUHU216DAVISVP2,2013-07-22 00:11:00,
2013-07-21 20:16:00,71.0,65.3,29.95,NE,52,0.0,1.0,82,0.00,,,0.00,7.0,WUHU216DAVISVP2,2013-07-22 00:16:00,
2013-07-21 20:21:00,71.2,65.5,29.95,NE,52,0.0,0.0,82,0.00,,,0.00,0.0,WUHU216DAVISVP2,2013-07-22 00:21:00,
2013-07-21 20:26:00,70.8,65.4,29.95,NE,52,0.0,1.0,83,0.00,,,0.00,0.0,WUHU216DAVISVP2,2013-07-22 00:26:00,
2013-07-21 20:31:00,70.9,65.5,29.95,NE,52,1.0,2.0,83,0.00,,,0.00,0.0,WUHU216DAVISVP2,2013-07-22 00:31:00,
2013-07-21 20:36:00,70.4,65.7,29.95,NE,52,0.0,2.0,85,0.00,,,0.00,0.0,WUHU216DAVISVP2,2013-07-22 00:36:00,
2013-07-21 20:41:00,70.0,65.6,29.96,NE,52,1.0,2.0,86,0.00,,,0.00,0.0,WUHU216DAVISVP2,2013-07-22 00:41:00,
2013-07-21 20:46:00,69.8,65.4,29.96,NE,52,0.0,2.0,86,0.00,,,0.00,0.0,WUHU216DAVISVP2,2013-07-22 00:46:00,
2013-07-21 20:51:00,69.6,65.6,29.96,NE,52,1.0,1.0,87,0.00,,,0.00,0.0,WUHU216DAVISVP2,2013-07-22 00:51:00,
2013-07-21 20:56:00,69.4,65.7,29.97,NE,52,0.0,1.0,88,0.00,,,0.00,0.0,WUHU216DAVISVP2,2013-07-22 00:56:00,
2013-07-21 21:01:00,69.2,65.5,29.97,NE,52,0.0,1.0,88,0.00,,,0.00,0.0,WUHU216DAVISVP2,2013-07-22 01:01:00,
2013-07-21 21:06:00,68.8,65.4,29.97,NE,52,0.0,1.0,89,0.00,,,0.00,0.0,WUHU216DAVISVP2,2013-07-22 01:06:00,
2013-07-21 21:11:00,69.0,65.6,29.97,NE,52,0.0,1.0,89,0.00,,,0.00,0.0,WUHU216DAVISVP2,2013-07-22 01:11:00,
2013-07-21 21:16:00,68.9,65.5,29.97,NE,52,0.0,1.0,89,0.00,,,0.00,0.0,WUHU216DAVISVP2,2013-07-22 01:16:00,
2013-07-21 21:21:00,68.6,65.5,29.98,NE,52,0.0,1.0,90,0.00,,,0.00,0.0,WUHU216DAVISVP2,2013-07-22 01:21:00,
2013-07-21 21:26:00,68.2,65.1,29.98,NE,52,0.0,1.0,90,0.00,,,0.00,0.0,WUHU216DAVISVP2,2013-07-22 01:26:00,
2013-07-21 21:31:00,68.1,65.3,29.98,NE,52,0.0,1.0,91,0.00,,,0.00,0.0,WUHU216DAVISVP2,2013-07-22 01:31:00,
2013-07-21 21:36:00,67.9,65.2,29.98,NE,52,0.0,1.0,91,0.00,,,0.00,0.0,WUHU216DAVISVP2,2013-07-22 01:36:00,
2013-07-21 21:41:00,67.8,65.4,29.98,NE,52,0.0,1.0,92,0.00,,,0.00,0.0,WUHU216DAVISVP2,2013-07-22 01:41:00,
2013-07-21 21:46:00,67.7,65.0,29.98,NE,52,0.0,1.0,91,0.00,,,0.00,0.0,WUHU216DAVISVP2,2013-07-22 01:46:00,
2013-07-21 21:51:00,67.5,65.1,29.98,NE,52,0.0,1.0,92,0.00,,,0.00,0.0,WUHU216DAVISVP2,2013-07-22 01:51:00,
2013-07-21 21:56:00,67.5,65.1,29.99,NE,52,0.0,1.0,92,0.00,,,0.00,0.0,WUHU216DAVISVP2,2013-07-22 01:56:00,
2013-07-21 22:01:00,67.5,65.1,29.99,NE,52,1.0,1.0,92,0.00,,,0.00,0.0,WUHU216DAVISVP2,2013-07-22 02:01:00,
2013-07-21 22:06:00,67.3,64.9,29.99,NE,52,0.0,1.0,92,0.00,,,0.00,0.0,WUHU216DAVISVP2,2013-07-22 02:06:00,
2013-07-21 22:11:00,67.0,64.9,29.99,NE,52,0.0,1.0,93,0.00,,,0.00,0.0,WUHU216DAVISVP2,2013-07-22 02:11:00,
2013-07-21 22:16:00,66.7,64.9,29.99,NE,52,0.0,1.0,94,0.00,,,0.00,0.0,WUHU216DAVISVP2,2013-07-22 02:16:00,
2013-07-21 22:21:00,66.7,64.9,30.00,NE,52,0.0,1.0,94,0.00,,,0.00,0.0,WUHU216DAVISVP2,2013-07-22 02:21:00,
2013-07-21 22:26:00,66.8,64.7,29.99,NE,52,0.0,1.0,93,0.00,,,0.00,0.0,WUHU216DAVISVP2,2013-07-22 02:26:00,
2013-07-21 22:31:00,66.6,64.5,29.99,NE,52,1.0,1.0,93,0.00,,,0.00,0.0,WUHU216DAVISVP2,2013-07-22 02:31:00,
2013-07-21 22:36:00,66.5,64.4,29.99,NE,52,0.0,1.0,93,0.00,,,0.00,0.0,WUHU216DAVISVP2,2013-07-22 02:36:00,
2013-07-21 22:41:00,66.4,64.6,30.00,NE,52,0.0,1.0,94,0.00,,,0.00,0.0,WUHU216DAVISVP2,2013-07-22 02:41:00,
2013-07-21 22:46:00,66.3,64.5,30.00,NE,52,0.0,1.0,94,0.00,,,0.00,0.0,WUHU216DAVISVP2,2013-07-22 02:46:00,
2013-07-21 22:51:00,66.3,64.2,30.00,NE,52,0.0,1.0,93,0.00,,,0.00,0.0,WUHU216DAVISVP2,2013-07-22 02:51:00,
2013-07-21 22:56:00,66.2,64.4,30.00,NE,52,0.0,1.0,94,0.00,,,0.00,0.0,WUHU216DAVISVP2,2013-07-22 02:56:00,
2013-07-21 23:01:00,66.1,64.3,30.00,NE,52,0.0,1.0,94,0.00,,,0.00,0.0,WUHU216DAVISVP2,2013-07-22 03:01:00,
2013-07-21 23:06:00,66.0,64.2,30.00,NE,52,0.0,1.0,94,0.00,,,0.00,0.0,WUHU216DAVISVP2,2013-07-22 03:06:00,
2013-07-21 23:11:00,65.9,64.1,30.00,NE,52,0.0,1.0,94,0.00,,,0.00,0.0,WUHU216DAVISVP2,2013-07-22 03:11:00,
2013-07-21 23:16:00,65.8,64.3,30.00,NE,52,1.0,1.0,95,0.00,,,0.00,0.0,WUHU216DAVISVP2,2013-07-22 03:16:00,
2013-07-21 23:21:00,65.7,64.2,30.00,NE,52,0.0,1.0,95,0.00,,,0.00,0.0,WUHU216DAVISVP2,2013-07-22 03:21:00,
2013-07-21 23:26:00,65.6,63.8,30.00,NE,52,0.0,1.0,94,0.00,,,0.00,0.0,WUHU216DAVISVP2,2013-07-22 03:26:00,
2013-07-21 23:31:00,65.4,63.6,30.00,NE,52,0.0,1.0,94,0.00,,,0.00,0.0,WUHU216DAVISVP2,2013-07-22 03:31:00,
2013-07-21 23:36:00,65.3,63.5,30.00,NE,52,0.0,1.0,94,0.00,,,0.00,0.0,WUHU216DAVISVP2,2013-07-22 03:36:00,
2013-07-21 23:41:00,65.3,63.8,30.00,NE,52,0.0,0.0,95,0.00,,,0.00,0.0,WUHU216DAVISVP2,2013-07-22 03:41:00,
2013-07-21 23:46:00,65.3,63.8,30.01,NE,52,0.0,0.0,95,0.00,,,0.00,0.0,WUHU216DAVISVP2,2013-07-22 03:46:00,
2013-07-21 23:51:00,65.1,63.6,30.01,NE,52,0.0,1.0,95,0.00,,,0.00,0.0,WUHU216DAVISVP2,2013-07-22 03:51:00,
2013-07-21 23:56:00,64.9,63.4,30.01,NE,52,0.0,1.0,95,0.00,,,0.00,0.0,WUHU216DAVISVP2,2013-07-22 03:56:00,